Theta_e
347 349 348 351 352 352 349 345 351 352 352 351 351 350 350 350 351 351 348 345 346 345 343 342 342 342 342 347 345 349 349 349 349 348 347 349 347 346 344 343 342 340 346
346 350 351 351 352 348 345 351 352 352 352 352 352 350 351 348 348 350 351 350 347 344 348 349 347 349 349 348 349 349 348 347 347 346 346 346 347 347 346 345 342 343 345
345 349 348 349 351 343 351 352 352 353 349 352 352 351 350 351 351 348 350 349 349 350 351 349 349 349 349 348 350 351 350 350 350 348 346 343 346 348 347 347 346 346 345
344 345 346 348 349 343 350 349 352 352 352 351 352 351 351 352 350 351 351 344 348 349 348 350 350 350 350 350 351 351 351 350 345 348 342 341 344 348 349 350 348 347 346
347 346 346 346 343 348 350 352 352 352 352 352 352 352 352 351 350 351 346 350 350 350 350 349 350 351 351 351 351 350 350 346 346 348 344 339 341 345 347 348 347 349 345
346 346 346 350 351 348 350 351 350 352 353 352 352 351 352 353 352 351 351 351 351 351 350 350 350 351 350 350 349 348 344 342 345 345 345 342 343 345 349 349 350 348 342
346 347 350 351 352 351 351 352 352 351 350 352 350 352 352 353 353 351 351 351 352 350 350 351 351 351 350 350 348 349 341 344 345 345 344 343 345 347 350 350 349 347 348
344 345 348 352 351 350 352 352 351 352 351 352 352 352 351 352 352 352 352 352 352 351 351 352 352 351 349 347 347 348 347 348 343 344 343 344 345 351 350 350 350 345 347
344 346 347 345 342 350 351 351 352 351 351 352 350 347 352 347 349 349 350 350 351 352 352 351 350 346 348 349 346 345 343 344 346 341 341 341 345 350 351 347 349 347 348
346 346 345 345 346 346 345 340 344 350 352 352 348 346 351 346 348 345 347 351 353 351 353 347 343 341 342 341 342 342 343 343 345 342 338 343 338 348 348 349 350 348 342
347 347 344 345 348 348 349 348 339 337 348 349 347 345 346 348 349 349 350 348 351 352 352 350 347 343 340 338 339 339 346 344 343 344 345 343 337 340 349 343 342 347 346
342 344 344 345 347 347 346 344 350 348 343 346 348 349 349 348 349 349 348 345 349 350 351 351 348 344 339 344 345 340 344 346 345 345 346 344 342 339 343 350 346 343 341
338 339 343 347 349 347 347 347 349 349 349 345 348 351 348 348 346 347 347 346 349 347 348 348 349 346 345 344 343 342 343 341 342 343 345 343 342 341 344 350 349 344 346
337 339 340 344 347 349 349 349 350 349 349 347 346 348 351 351 349 349 349 348 349 347 347 347 347 347 347 347 346 342 341 340 340 342 342 342 340 340 341 347 350 347 346
338 339 340 343 347 349 351 351 351 352 348 350 349 347 349 350 351 350 350 351 351 347 346 347 347 348 348 348 348 346 344 341 341 342 344 346 345 344 344 341 345 348 346
337 339 340 343 346 348 350 352 352 351 347 346 346 350 349 350 352 352 352 352 351 350 349 351 348 348 349 350 352 350 349 347 346 345 347 348 348 347 345 343 345 346 344
343 339 340 343 345 347 349 350 351 350 350 347 350 352 352 352 351 352 352 352 353 353 354 353 352 352 352 352 352 352 351 350 350 349 349 349 349 349 346 345 345 344 344
348 344 344 342 342 347 348 352 351 351 352 351 351 350 351 352 351 352 351 350 350 351 352 350 351 352 351 351 351 352 351 351 351 351 351 350 349 348 349 347 343 344 344
349 349 349 348 343 347 350 351 352 352 347 347 350 350 351 351 350 350 349 348 350 350 352 351 347 346 351 352 352 352 353 352 353 351 351 351 351 349 348 349 348 345 345
349 350 350 346 350 351 351 352 352 352 352 351 352 353 350 351 350 351 350 352 352 352 351 352 353 352 353 353 352 349 351 352 352 353 353 353 354 354 354 353 353 352 347
349 349 350 350 343 351 352 353 352 349 350 351 352 347 346 353 355 354 352 353 355 355 352 353 353 353 353 353 354 352 352 350 351 353 353 353 354 354 355 355 355 354 353
349 348 351 350 351 353 352 353 353 350 349 351 354 354 355 355 355 356 356 355 354 353 356 354 353 352 353 353 353 353 358 351 351 351 352 352 353 354 355 355 355 355 354
348 349 350 352 354 354 352 354 355 354 353 351 352 354 355 358 357 357 357 357 355 354 353 350 351 356 353 353 353 351 355 358 354 352 352 352 355 354 353 354 354 356 356
348 348 349 352 353 354 355 353 354 352 352 351 352 350 354 355 350 349 350 354 356 354 355 356 355 351 354 354 351 350 351 350 355 355 353 351 354 353 353 353 354 354 356
347 350 350 353 353 352 351 351 353 354 353 353 354 354 353 352 353 353 354 355 358 355 355 356 355 353 351 349 355 354 354 353 354 356 355 355 352 352 353 353 352 352 353
347 346 347 350 352 351 351 351 352 355 355 354 355 354 355 353 352 351 351 351 350 351 351 352 351 353 353 353 357 356 356 354 354 353 356 351 353 351 350 349 353 352 353
Wind_Speed
11 12 12 13 10 10 11 12 13 14 14 16 17 18 18 18 17 17 16 19 18 19 19 16 16 17 18 16 20 20 20 20 20 21 19 18 16 15 15 16 15 15 15
16 14 15 13 10 10 11 11 13 14 15 16 17 17 17 18 17 15 16 18 20 20 19 15 16 17 18 19 20 22 21 19 19 18 17 18 15 14 13 15 16 14 14
16 15 13 14 10 10 8 11 12 13 14 15 15 16 16 16 17 18 17 18 22 22 21 19 19 19 19 19 18 18 18 16 16 13 12 15 13 14 14 15 15 14 13
16 15 14 12 10 10 9 11 12 12 12 13 14 14 14 15 16 19 18 19 20 22 19 19 20 20 20 18 16 17 16 15 15 11 13 12 13 11 12 13 15 12 12
14 13 12 11 10 10 10 11 11 11 12 12 12 13 13 13 15 16 18 19 18 18 17 18 17 18 17 18 18 16 14 15 16 13 12 11 12 10 10 12 12 10 10
14 13 12 11 10 9 9 10 10 11 11 11 11 12 14 13 13 14 15 18 17 16 15 16 16 17 16 16 14 14 11 13 12 12 12 10 12 11 9 10 10 11 11
14 13 11 10 9 9 9 9 10 10 10 9 11 11 11 13 12 13 13 14 15 15 15 15 14 14 12 10 10 12 13 11 10 10 11 10 9 9 9 8 9 10 9
13 12 10 9 8 7 8 9 8 8 9 10 9 10 10 10 11 11 12 11 11 13 12 12 11 12 10 11 8 10 9 6 9 8 9 10 9 7 7 7 7 8 8
12 12 10 9 7 7 7 8 8 8 8 8 8 9 8 8 9 9 9 9 8 8 9 9 9 10 8 6 7 7 5 7 6 6 8 8 6 7 5 5 6 7 6
11 10 9 8 8 6 5 6 6 6 7 8 6 8 8 7 7 7 8 7 7 6 6 4 4 5 5 3 4 3 6 8 4 6 7 6 5 6 4 4 4 5 5
10 8 7 8 7 5 5 4 5 5 5 6 6 6 6 6 6 6 5 6 4 5 5 4 3 3 2 1 2 1 5 4 6 5 5 2 5 6 5 4 5 5 3
12 10 7 6 6 6 4 4 3 4 3 4 4 5 4 5 5 5 5 5 5 4 4 4 4 3 2 4 4 4 2 2 4 4 4 3 4 5 6 7 6 5 6
11 10 9 7 5 5 5 3 2 3 4 4 5 4 4 4 4 3 4 4 5 4 7 5 4 4 5 5 6 7 4 4 5 5 5 6 6 6 8 9 8 8 9
10 9 9 8 6 5 4 4 4 4 4 4 7 6 4 4 4 4 4 4 4 5 4 5 5 6 7 8 9 7 7 7 8 8 7 11 12 11 11 10 11 12 12
11 10 10 8 8 7 6 3 3 3 4 4 5 6 5 5 4 5 6 5 5 5 6 6 7 7 7 8 9 9 10 11 11 11 10 11 15 15 15 14 13 15 16
10 11 10 10 9 8 6 5 5 5 3 3 3 4 5 4 5 5 4 5 5 5 6 6 7 8 9 9 9 10 11 12 11 12 13 13 14 15 14 15 13 15 18
10 10 11 10 9 9 7 5 4 5 2 2 1 2 2 1 2 3 2 3 3 4 6 7 8 8 9 10 10 10 12 14 15 15 16 15 15 16 16 16 13 13 16
9 10 10 10 10 9 7 4 4 3 3 2 1 1 3 3 2 1 2 2 4 5 5 5 6 8 9 8 9 9 10 10 11 12 14 15 15 15 14 15 16 16 15
11 10 11 11 12 9 7 6 5 3 4 5 2 1 1 2 3 3 3 2 4 5 4 4 5 6 7 8 7 8 9 9 9 10 11 12 12 12 12 12 16 18 18
12 12 12 14 10 10 8 7 6 5 5 4 4 3 4 4 4 5 5 4 5 5 4 6 5 7 7 9 9 11 11 11 10 10 11 12 12 12 13 12 12 14 16
11 10 10 12 16 11 10 8 6 8 7 6 6 6 6 5 6 7 6 7 6 7 8 6 7 7 9 9 10 11 9 11 11 10 10 10 9 11 11 12 13 14 14
12 12 11 14 13 14 10 8 4 4 6 4 3 5 6 7 6 7 7 7 7 8 7 7 7 7 8 7 8 9 5 3 6 5 5 5 5 6 8 11 12 13 14
14 14 12 15 14 13 9 8 6 4 4 4 4 3 2 4 5 6 6 7 8 9 9 7 6 6 9 7 4 5 4 1 10 2 3 4 3 4 6 9 11 12 13
14 13 14 15 16 12 9 8 8 8 4 1 3 3 2 2 1 1 2 4 4 6 6 6 5 4 5 8 5 6 12 9 4 5 3 4 6 8 8 10 10 10 12
14 13 12 14 15 11 11 10 10 9 3 4 2 1 2 3 1 1 1 3 2 1 2 2 2 2 4 7 5 6 8 11 12 9 9 5 10 7 7 10 11 11 11
16 14 13 15 14 13 13 11 12 9 6 3 3 3 1 2 2 4 3 3 2 2 1 2 4 6 7 6 6 7 9 7 7 9 9 11 6 10 6 12 10 10 10
Wind_Direction
140 133 129 130 120 99 93 87 90 87 83 80 80 83 85 84 84 85 91 101 113 116 120 116 115 118 116 109 107 110 106 105 108 107 104 104 110 110 110 109 102 102 102
136 135 132 135 118 106 101 91 90 87 90 84 85 86 81 82 81 83 88 96 105 120 115 119 124 121 115 101 99 100 104 107 106 108 111 104 109 112 104 94 101 103 98
134 136 135 134 126 116 104 96 94 91 92 94 90 91 87 82 79 79 93 101 104 103 101 98 104 107 104 102 100 101 104 106 111 112 111 102 104 107 105 105 104 101 101
134 137 138 142 130 121 104 102 100 96 98 96 98 95 91 85 83 84 93 103 102 101 101 97 98 102 103 104 101 97 99 97 100 92 102 108 107 104 106 107 106 108 108
135 135 143 143 134 121 115 109 100 97 104 97 94 94 98 91 87 86 94 98 101 99 100 99 99 98 100 103 94 91 98 107 92 96 99 100 115 114 113 106 107 105 109
132 130 137 139 139 126 111 107 102 97 98 101 95 94 96 97 100 94 92 100 99 99 100 100 99 96 97 98 87 87 89 96 97 98 95 101 104 117 114 111 109 105 102
135 127 133 133 131 119 116 105 107 104 100 99 96 99 95 97 96 102 98 97 103 104 107 107 108 105 100 98 92 90 86 93 101 99 101 102 108 112 114 114 111 106 105
132 129 132 134 132 121 108 109 107 113 110 104 99 98 102 101 104 101 104 109 108 108 113 114 113 103 98 94 97 86 89 115 94 105 109 102 117 118 121 119 116 105 115
135 133 135 136 134 126 119 108 101 105 116 118 113 111 102 104 105 109 110 111 108 106 111 116 112 107 108 104 87 74 88 97 120 120 121 117 121 127 139 134 131 123 129
138 138 137 139 131 129 116 121 118 112 112 125 128 135 122 120 116 115 118 118 123 127 112 116 117 120 118 111 103 77 76 100 130 136 119 120 153 157 167 168 148 150 151
155 157 152 143 144 161 140 138 100 125 137 130 129 152 117 144 134 131 148 137 129 137 148 153 174 182 178 271 242 229 80 123 147 153 131 140 176 177 188 192 184 183 182
165 165 161 152 148 147 146 163 165 159 158 165 156 153 160 161 161 148 158 163 157 168 182 202 208 229 237 224 246 278 224 153 196 196 162 224 205 201 201 210 210 212 214
169 165 170 169 166 164 184 178 189 188 188 195 194 179 173 167 167 175 170 181 186 195 214 191 228 226 229 250 249 249 246 243 234 229 212 241 235 236 222 224 225 221 232
171 173 173 175 181 186 188 200 208 204 205 204 200 197 195 200 195 199 199 205 216 223 236 243 245 246 240 238 247 259 257 254 257 255 246 256 255 247 241 237 234 234 230
180 182 178 181 190 199 214 231 252 233 213 228 201 201 196 206 203 214 210 208 229 217 227 231 235 236 243 249 252 254 257 258 258 257 261 255 265 254 252 249 242 237 234
187 183 184 189 198 205 212 233 268 282 270 241 222 179 212 213 229 226 222 221 218 232 232 242 240 244 251 255 253 256 256 254 251 252 259 259 260 261 251 241 242 241 238
186 191 194 199 199 210 224 236 254 290 21 322 281 220 231 192 270 252 233 230 243 242 244 261 256 247 254 263 261 254 251 248 253 251 252 256 253 257 254 246 241 244 240
193 200 207 205 203 204 214 230 254 284 274 253 232 211 198 191 215 217 213 245 244 255 259 266 261 261 261 258 262 260 259 252 251 255 255 258 257 255 241 255 244 244 242
215 214 213 211 205 206 212 227 242 239 256 236 213 222 194 204 212 221 247 234 246 258 267 249 259 266 263 246 258 259 254 259 254 247 248 250 247 247 250 244 253 244 240
211 219 230 220 206 204 201 209 228 217 235 228 230 229 249 250 239 247 258 249 257 257 270 274 288 285 285 285 291 290 284 269 260 249 242 245 248 247 246 247 245 253 249
197 201 207 201 195 200 194 200 211 211 209 228 243 259 259 254 248 243 268 267 261 272 274 270 277 287 288 280 289 289 264 253 245 244 248 251 254 251 248 246 247 254 251
199 205 200 208 206 203 187 205 218 208 196 214 241 263 246 245 255 253 257 267 279 276 276 270 267 276 276 273 296 297 304 270 199 224 240 257 265 251 240 244 251 252 250
210 211 210 195 192 195 183 198 203 192 191 220 236 252 249 258 260 260 255 267 272 276 279 278 268 250 290 325 298 283 302 330 340 224 248 282 255 254 259 260 259 259 246
204 213 202 194 188 187 192 201 209 234 232 333 267 274 248 190 220 230 270 279 278 274 289 299 266 279 299 301 322 290 264 271 304 300 287 273 258 271 273 277 270 260 254
181 186 190 191 194 201 198 205 220 228 210 257 257 120 90 77 73 270 325 351 292 304 324 331 278 285 301 309 300 278 269 264 252 256 295 259 266 301 284 282 281 271 264
174 182 188 193 191 192 205 217 216 217 229 226 201 169 115 118 101 78 78 61 59 128 173 251 284 294 304 291 290 295 281 289 306 276 271 295 309 289 312 294 284 272 267